Location: Unspecified
(51.5147°N, 7.4673°E)
Time: 03:26:00
(UTC+01:00)

Explorer 7 - Pass Details

Date: 25 February 2026
Orbit: 430 x 541 km, 50.2° (Epoch: 12 March)

Event Time Altitude Azimuth Distance (km) Brightness Sun altitude
Rises 16:07:10 0° 273° (W) 2,434 10.9 15.4°
Reaches altitude 10° 16:09:16 10° 271° (W) 1,577 10.2 15.1°
Maximum altitude 16:12:48 68° 188° (S) 498 7.1 14.7°
Drops below altitude 10° 16:16:27 10° 105° (ESE) 1,634 8.9 14.2°
Sets 16:18:40 0° 103° (ESE) 2,533 9.8 13.9°
